| time (UTC) | temp F | wind direction | speed MPH | gust MPH | rain 1hr in | rain 24hr in | rain mn in | humidity % | barometer mb |
| 20260901224511 | 67 | 142 | 0.0 | 3.0 | 0.00 | 0.14 | 0.14 | 84 | 1016.5 |
| 20260901223011 | 67 | 133 | 1.0 | 4.0 | 0.00 | 0.14 | 0.14 | 84 | 1016.6 |
| 20260901221507 | 67 | 130 | 2.0 | 5.0 | 0.00 | 0.14 | 0.14 | 84 | 1016.4 |
| 20260901220007 | 67 | 128 | 1.0 | 3.0 | 0.00 | 0.14 | 0.14 | 84 | 1016.7 |
| 20260901214519 | 67 | 126 | 1.0 | 5.0 | 0.00 | 0.14 | 0.14 | 84 | 1016.7 |
| 20260901213006 | 67 | 138 | 1.0 | 5.0 | 0.00 | 0.14 | 0.14 | 83 | 1016.5 |
| 20260901211508 | 68 | 120 | 1.0 | 5.0 | 0.00 | 0.14 | 0.14 | 83 | 1016.3 |
| 20260901210007 | 68 | 153 | 1.0 | 3.0 | 0.00 | 0.14 | 0.14 | 84 | 1016.1 |
| 20260901204504 | 68 | 135 | 0.0 | 3.0 | 0.00 | 0.14 | 0.14 | 83 | 1016.1 |
| 20260901203004 | 68 | 135 | 2.0 | 4.0 | 0.00 | 0.14 | 0.14 | 82 | 1016.1 |
| 20260901201504 | 69 | 143 | 0.0 | 2.0 | 0.00 | 0.14 | 0.14 | 82 | 1016.1 |
| 20260901200114 | 69 | 176 | 0.0 | 2.0 | 0.00 | 0.14 | 0.14 | 84 | 1016.0 |
| 20260901194502 | 69 | 171 | 0.0 | 3.0 | 0.00 | 0.14 | 0.14 | 83 | 1015.9 |
| 20260901193004 | 69 | 198 | 0.0 | 5.0 | 0.00 | 0.14 | 0.14 | 83 | 1016.0 |
| 20260901191502 | 69 | 213 | 0.0 | 5.0 | 0.00 | 0.14 | 0.14 | 84 | 1016.1 |
| 20260901190002 | 69 | 215 | 3.0 | 5.0 | 0.00 | 0.14 | 0.14 | 84 | 1016.1 |
| 20260901184607 | 69 | 208 | 0.0 | 3.0 | 0.00 | 0.14 | 0.14 | 84 | 1016.2 |
| 20260901183108 | 68 | 217 | 0.0 | 5.0 | 0.00 | 0.14 | 0.14 | 85 | 1016.2 |
| 20260901181601 | 68 | 201 | 2.0 | 7.0 | 0.00 | 0.14 | 0.14 | 85 | 1016.1 |
| 20260901180057 | 68 | 220 | 0.0 | 4.0 | 0.00 | 0.14 | 0.14 | 86 | 1016.2 |
| 20260901174554 | 67 | 211 | 0.0 | 2.0 | 0.00 | 0.14 | 0.14 | 88 | 1016.2 |
| 20260901173055 | 66 | 205 | 0.0 | 5.0 | 0.00 | 0.14 | 0.14 | 89 | 1016.3 |
| 20260901171557 | 66 | 209 | 0.0 | 2.0 | 0.00 | 0.14 | 0.14 | 90 | 1016.2 |
| 20260901170050 | 65 | 171 | 0.0 | 2.0 | 0.00 | 0.14 | 0.14 | 89 | 1016.2 |
| 20260901164548 | 65 | 217 | 2.0 | 4.0 | 0.00 | 0.14 | 0.14 | 90 | 1016.3 |
| 20260901163056 | 65 | 202 | 0.0 | 4.0 | 0.00 | 0.14 | 0.14 | 91 | 1016.2 |
| 20260901161548 | 65 | 319 | 0.0 | 0.0 | 0.00 | 0.14 | 0.14 | 91 | 1016.0 |
| 20260901160044 | 64 | 338 | 0.0 | 5.0 | 0.00 | 0.14 | 0.14 | 92 | 1016.1 |
| 20260901154608 | 63 | 360 | 0.0 | 4.0 | 0.00 | 0.14 | 0.14 | 92 | 1016.0 |
| 20260901153047 | 63 | 20 | 0.0 | 3.0 | 0.00 | 0.14 | 0.14 | 92 | 1016.2 |
| 20260901151542 | 63 | 327 | 0.0 | 4.0 | 0.00 | 0.14 | 0.14 | 92 | 1016.3 |
| 20260901150049 | 63 | 333 | 1.0 | 2.0 | 0.00 | 0.14 | 0.14 | 92 | 1016.4 |
| 20260901144543 | 64 | 317 | 0.0 | 4.0 | 0.00 | 0.14 | 0.14 | 93 | 1016.3 |
| 20260901143041 | 64 | 238 | 0.0 | 1.0 | 0.00 | 0.14 | 0.14 | 93 | 1016.0 |
| 20260901141553 | 64 | 238 | 0.0 | 2.0 | 0.00 | 0.14 | 0.14 | 93 | 1015.9 |
| 20260901140040 | 63 | 237 | 0.0 | 0.0 | 0.00 | 0.14 | 0.14 | 93 | 1015.5 |
| 20260901134537 | 63 | 237 | 0.0 | 0.0 | 0.00 | 0.14 | 0.14 | 93 | 1015.5 |
| 20260901133036 | 63 | 237 | 0.0 | 0.0 | 0.01 | 0.14 | 0.14 | 93 | 1016.1 |
| 20260901131536 | 62 | 237 | 0.0 | 1.0 | 0.02 | 0.14 | 0.14 | 93 | 1016.2 |
| 20260901130034 | 62 | 243 | 0.0 | 0.0 | 0.03 | 0.14 | 0.14 | 93 | 1016.6 |
| 20260901124541 | 62 | 243 | 0.0 | 1.0 | 0.05 | 0.14 | 0.14 | 93 | 1016.5 |
| 20260901123033 | 62 | 300 | 0.0 | 0.0 | 0.04 | 0.13 | 0.13 | 93 | 1016.4 |
| 20260901121533 | 62 | 300 | 0.0 | 0.0 | 0.05 | 0.12 | 0.12 | 92 | 1016.5 |
| 20260901120031 | 62 | 300 | 0.0 | 1.0 | 0.05 | 0.11 | 0.11 | 92 | 1016.7 |
| 20260901114530 | 63 | 300 | 0.0 | 1.0 | 0.05 | 0.09 | 0.09 | 92 | 1016.7 |
| 20260901113029 | 63 | 300 | 0.0 | 5.0 | 0.05 | 0.08 | 0.08 | 92 | 1016.8 |
| 20260901111528 | 63 | 217 | 0.0 | 2.0 | 0.06 | 0.07 | 0.07 | 92 | 1016.5 |
| 20260901110026 | 63 | 217 | 0.0 | 0.0 | 0.05 | 0.05 | 0.05 | 91 | 1016.2 |
| 20260901104525 | 63 | 217 | 0.0 | 0.0 | 0.03 | 0.03 | 0.03 | 91 | 1016.1 |
| 20260901103027 | 63 | 217 | 0.0 | 0.0 | 0.03 | 0.03 | 0.03 | 91 | 1016.3 |
| 20260901101525 | 63 | 217 | 0.0 | 0.0 | 0.01 | 0.01 | 0.01 | 91 | 1016.2 |
| 20260901100023 | 63 | 217 | 0.0 | 0.0 | 0.00 | 0.00 | 0.00 | 91 | 1016.3 |
| 20260901094525 | 63 | 217 | 0.0 | 0.0 | 0.00 | 0.00 | 0.00 | 91 | 1016.1 |
| 20260901093028 | 63 | 217 | 0.0 | 0.0 | 0.00 | 0.00 | 0.00 | 91 | 1016.1 |
| 20260901091522 | 63 | 217 | 0.0 | 0.0 | 0.00 | 0.00 | 0.00 | 91 | 1015.8 |
| 20260901090020 | 63 | 217 | 0.0 | 0.0 | 0.00 | 0.00 | 0.00 | 91 | 1015.6 |
| 20260901084520 | 63 | 217 | 0.0 | 0.0 | 0.00 | 0.00 | 0.00 | 91 | 1015.8 |
| 20260901083018 | 63 | 217 | 0.0 | 0.0 | 0.00 | 0.00 | 0.00 | 90 | 1016.1 |
| 20260901081517 | 63 | 217 | 0.0 | 0.0 | 0.00 | 0.00 | 0.00 | 90 | 1016.2 |
| 20260901080020 | 63 | 217 | 0.0 | 0.0 | 0.00 | 0.00 | 0.00 | 90 | 1016.2 |
| 20260901074517 | 63 | 217 | 0.0 | 0.0 | 0.00 | 0.00 | 0.00 | 90 | 1016.2 |
| 20260901073016 | 63 | 217 | 0.0 | 0.0 | 0.00 | 0.00 | 0.00 | 90 | 1016.2 |
| 20260901071516 | 63 | 217 | 0.0 | 0.0 | 0.00 | 0.00 | 0.00 | 90 | 1016.2 |
| 20260901070019 | 63 | 217 | 0.0 | 0.0 | 0.00 | 0.00 | 0.00 | 90 | 1016.2 |
| 20260901064519 | 63 | 217 | 0.0 | 0.0 | 0.00 | 0.00 | 0.00 | 89 | 1016.4 |
| 20260901063024 | 63 | 217 | 0.0 | 0.0 | 0.00 | 0.00 | 0.00 | 89 | 1016.5 |
| 20260901061509 | 63 | 217 | 0.0 | 0.0 | 0.00 | 0.00 | 0.00 | 89 | 1016.7 |
| 20260901060009 | 63 | 217 | 0.0 | 0.0 | 0.00 | 0.00 | 0.00 | 89 | 1016.7 |
| 20260901054506 | 63 | 217 | 0.0 | 0.0 | 0.00 | 0.00 | 0.00 | 89 | 1016.8 |
| 20260901053004 | 63 | 217 | 0.0 | 0.0 | 0.00 | 0.00 | 0.00 | 89 | 1017.1 |
| 20260901051503 | 63 | 217 | 0.0 | 0.0 | 0.00 | 0.00 | 0.00 | 88 | 1017.3 |
| 20260901050003 | 63 | 217 | 0.0 | 0.0 | 0.00 | 0.00 | 0.00 | 88 | 1017.3 |
| 20260901044502 | 64 | 217 | 0.0 | 0.0 | 0.00 | 0.00 | 0.00 | 88 | 1017.5 |
| 20260901043100 | 64 | 217 | 0.0 | 0.0 | 0.00 | 0.00 | 0.00 | 88 | 1017.4 |
| 20260901041559 | 64 | 217 | 0.0 | 0.0 | 0.00 | 0.00 | 0.00 | 88 | 1017.3 |
| 20260901040057 | 64 | 217 | 0.0 | 0.0 | 0.00 | 0.00 | 0.00 | 87 | 1017.2 |
| 20260901034557 | 64 | 217 | 0.0 | 0.0 | 0.00 | 0.00 | 0.00 | 87 | 1017.1 |
| 20260901033059 | 64 | 217 | 0.0 | 0.0 | 0.00 | 0.00 | 0.00 | 86 | 1017.0 |
| 20260901031557 | 64 | 217 | 0.0 | 0.0 | 0.00 | 0.00 | 0.00 | 86 | 1017.2 |
| 20260901030055 | 64 | 217 | 0.0 | 0.0 | 0.00 | 0.00 | 0.00 | 86 | 1017.3 |
| 20260901024555 | 65 | 217 | 0.0 | 0.0 | 0.00 | 0.00 | 0.00 | 85 | 1017.3 |
| 20260901023055 | 65 | 217 | 0.0 | 0.0 | 0.00 | 0.00 | 0.00 | 85 | 1017.3 |
| 20260901021555 | 66 | 217 | 0.0 | 1.0 | 0.00 | 0.00 | 0.00 | 85 | 1017.3 |
| 20260901020056 | 66 | 217 | 0.0 | 0.0 | 0.00 | 0.00 | 0.00 | 84 | 1017.4 |
| 20260901014554 | 67 | 217 | 0.0 | 0.0 | 0.00 | 0.00 | 0.00 | 84 | 1017.2 |
| 20260901013107 | 67 | 217 | 0.0 | 0.0 | 0.00 | 0.00 | 0.00 | 83 | 1017.1 |
| 20260901011553 | 67 | 217 | 0.0 | 1.0 | 0.00 | 0.00 | 0.00 | 82 | 1017.1 |
| 20260901010056 | 68 | 217 | 0.0 | 0.0 | 0.00 | 0.00 | 0.00 | 80 | 1017.0 |
| 20260901004551 | 69 | 217 | 0.0 | 0.0 | 0.00 | 0.00 | 0.00 | 79 | 1017.1 |
| 20260901003051 | 69 | 217 | 0.0 | 0.0 | 0.00 | 0.00 | 0.00 | 79 | 1017.1 |
| 20260901001553 | 70 | 217 | 0.0 | 0.0 | 0.00 | 0.00 | 0.00 | 78 | 1017.1 |
| 20260901000050 | 71 | 217 | 0.0 | 0.0 | 0.00 | 0.00 | 0.00 | 76 | 1017.1 |
| 20260831234556 | 71 | 217 | 0.0 | 0.0 | 0.00 | 0.00 | 0.00 | 74 | 1017.0 |
| 20260831233054 | 72 | 217 | 0.0 | 0.0 | 0.00 | 0.00 | 0.00 | 73 | 1017.0 |
| 20260831231550 | 73 | 217 | 0.0 | 0.0 | 0.00 | 0.00 | 0.00 | 70 | 1017.0 |
| 20260831230047 | 73 | 217 | 0.0 | 1.0 | 0.00 | 0.00 | 0.00 | 67 | 1017.1 |